DateTimeUTC,F1_A11,F1_S11,BsB_S11,BsG_S11,BsR_S11,BbsB_S11,BbsG_S11,BbsR_S11,BaB_A11,BaG_A11,BaR_A11,Tu_S11,T_S11,Uu_S11,U_S11,P_S11,T1_A11
2021-08-28T18:00:00Z,00000200,20000000,,,,,,,-000.13,-000.32,0000.00,20.7,27.2,07.2,04.9,0668.5,31.2
2021-08-28T18:01:00Z,00000200,20000000,,,,,,,0000.32,-000.06,0000.08,20.7,27.2,07.1,04.8,0668.5,31.2
2021-08-28T18:02:00Z,00000200,20000000,,,,,,,-000.15,0000.04,-000.08,20.7,27.2,07.1,04.8,0668.5,31.2
2021-08-28T18:03:00Z,00000200,60000000,,,,,,,-000.54,-000.25,-000.19,20.7,27.2,07.1,04.8,0668.5,31.2
2021-08-28T18:04:00Z,00000200,40000000,-000.19,0000.15,0000.08,-000.35,0000.12,0000.20,0000.46,0000.21,0000.15,20.8,27.0,07.0,04.8,0669.4,31.2
2021-08-28T18:05:00Z,00000200,00000000,0000.43,0000.12,-000.03,0001.03,-000.00,0000.30,-000.07,0000.01,0000.10,20.8,27.0,07.2,04.9,0669.5,31.2
2021-08-28T18:06:00Z,00000200,00000000,0000.95,0000.24,-000.58,-000.12,0000.18,0000.13,-000.31,-000.39,-000.13,20.9,27.0,07.1,04.9,0669.5,31.2
2021-08-28T18:07:00Z,00000200,00000000,-000.04,0000.22,0000.06,0000.47,-000.09,-000.16,0000.37,0000.25,-000.17,20.9,27.0,07.1,04.9,0669.5,31.2
2021-08-28T18:08:00Z,00000200,00000000,0000.87,0000.04,-000.09,0000.49,0000.37,-000.24,-000.73,-000.34,-000.22,20.9,27.0,07.1,04.9,0669.5,31.2
2021-08-28T18:09:00Z,00000200,00000000,0000.29,0000.13,0000.03,0000.49,0000.07,0000.35,0000.19,0000.10,-000.22,20.9,27.0,07.0,04.9,0669.5,31.2
2021-08-28T18:10:00Z,00000200,00000000,0000.32,-000.15,0000.07,-000.03,-000.25,0000.07,-000.22,-000.28,-000.11,20.9,27.0,07.0,04.8,0669.6,31.2
2021-08-28T18:11:00Z,00000200,00000000,0000.49,-000.04,-000.04,0000.33,0000.30,0000.41,0000.08,0000.02,0000.18,20.9,27.0,06.9,04.8,0669.6,31.2
2021-08-28T18:12:00Z,00000200,00000000,0000.44,0000.37,-000.16,0000.82,0000.09,0000.53,-000.21,0000.26,-000.09,20.9,27.0,07.0,04.8,0669.6,31.2
2021-08-28T18:13:00Z,00000200,00000000,-000.26,0000.32,0000.15,-000.03,-000.13,0000.28,0000.17,-000.36,0000.10,20.9,27.0,07.0,04.8,0669.6,31.2
2021-08-28T18:14:00Z,00000200,00000000,-000.19,0000.24,-000.15,0000.05,-000.04,-000.03,-000.38,0000.01,-000.04,20.9,27.0,07.0,04.9,0669.6,31.2
2021-08-28T18:15:00Z,00000200,00000000,0000.41,0000.24,-000.24,0000.79,-000.10,0000.17,-000.02,-000.24,-000.32,20.9,27.0,06.9,04.8,0669.6,31.2
2021-08-28T18:16:00Z,00000200,00000000,0001.19,0000.09,0000.20,0000.65,0000.28,0000.27,-000.25,-000.27,0000.04,20.9,27.0,06.8,04.7,0669.6,31.2
2021-08-28T18:17:00Z,00000200,00000000,0000.60,-000.26,0000.53,0000.29,0000.18,0000.45,-000.03,0000.06,-000.08,20.9,27.0,06.8,04.7,0669.6,31.2
2021-08-28T18:18:00Z,00000200,00000000,0000.30,-000.13,-000.31,0000.32,0000.12,0000.40,0000.25,-000.25,0000.02,20.9,27.0,06.8,04.7,0669.6,31.2
2021-08-28T18:19:00Z,00000200,00000000,0000.09,-000.24,-000.03,0000.29,0000.20,-000.00,-000.34,-000.19,0000.05,20.9,27.0,06.8,04.7,0669.6,31.2
2021-08-28T18:20:00Z,00000200,00000000,0000.01,0000.17,0000.12,-000.31,0000.14,0000.51,-000.10,-000.02,-000.38,20.9,27.0,06.7,04.7,0669.5,31.2
2021-08-28T18:21:00Z,00000200,00000000,0000.93,0000.29,0000.35,0000.90,0000.24,0000.06,-000.14,-000.18,-000.12,20.9,27.0,06.8,04.7,0669.5,31.2
2021-08-28T18:22:00Z,00000200,00000000,-000.31,0000.04,-000.11,0000.10,-000.21,0000.04,-000.10,0000.03,0000.30,20.9,27.0,06.7,04.6,0669.5,31.2
2021-08-28T18:23:00Z,00000200,00000000,-000.32,0000.17,0000.19,-000.10,0000.32,-000.13,-000.25,-000.26,-000.47,20.9,27.0,06.7,04.6,0669.6,31.2
2021-08-28T18:24:00Z,00000200,00000000,0000.73,0000.36,0000.04,0000.49,0000.08,0000.40,-000.03,0000.19,0000.09,20.9,27.0,06.7,04.7,0669.5,31.2
2021-08-28T18:25:00Z,00000200,00000000,0000.83,-000.03,-000.08,0000.50,0000.09,0000.20,0000.27,-000.15,-000.12,20.9,27.0,06.6,04.6,0669.5,31.2
2021-08-28T18:26:00Z,00000200,00000000,0000.18,0000.48,-000.00,-000.01,0000.15,-000.01,-000.07,0000.13,0000.23,20.9,27.0,06.6,04.6,0669.5,31.2
2021-08-28T18:27:00Z,00000200,00000000,0000.56,-000.07,0000.03,0000.35,0000.42,0000.19,-000.26,-000.02,-000.50,20.9,27.0,06.6,04.6,0669.5,31.2
2021-08-28T18:28:00Z,00000200,00000000,-000.26,0000.19,-000.37,0000.25,0000.38,-000.04,-000.02,-000.46,0000.38,20.9,27.0,06.6,04.6,0669.5,31.2
2021-08-28T18:29:00Z,00000200,00000000,0000.24,0000.23,-000.14,0000.57,0000.34,0000.04,0000.16,0000.19,-000.03,20.9,27.0,06.5,04.5,0669.5,31.2
2021-08-28T18:30:00Z,00000200,00000000,0000.24,-000.06,-000.01,0000.02,0000.13,-000.25,-000.14,0000.17,-000.08,20.9,27.0,06.4,04.5,0669.5,31.2
2021-08-28T18:31:00Z,00000200,00000000,0000.11,0000.22,-000.21,0000.28,0000.21,-000.10,-000.40,-000.36,0000.01,20.9,27.0,06.4,04.5,0669.5,31.2
2021-08-28T18:32:00Z,00000200,00000000,0000.51,0000.03,-000.05,0000.70,0000.04,0000.25,0000.16,0000.24,-000.27,20.9,27.0,06.4,04.5,0669.5,31.2
2021-08-28T18:33:00Z,00000200,00000000,0000.56,-000.16,-000.36,0000.38,0000.04,-000.08,-000.22,-000.17,0000.11,20.9,27.0,06.4,04.5,0669.5,31.2
2021-08-28T18:34:00Z,00000200,00000000,-000.09,-000.00,0000.14,-000.01,0000.42,0000.21,0000.04,-000.08,-000.03,20.9,27.0,06.3,04.4,0669.5,31.2
2021-08-28T18:35:00Z,00000200,00000000,0000.12,-000.04,0000.07,-000.15,0000.24,0000.09,-000.16,-000.19,-000.54,20.9,27.0,06.4,04.4,0669.5,31.2
2021-08-28T18:36:00Z,00000200,00000000,0000.62,0000.12,-000.08,0000.20,0000.15,-000.06,0000.44,0000.20,0000.41,20.9,27.0,06.4,04.4,0669.5,31.2
2021-08-28T18:37:00Z,00000200,00000000,0000.83,0000.05,-000.04,0000.56,-000.07,0000.07,-000.41,-000.18,-000.21,20.9,27.0,06.4,04.4,0669.5,31.2
2021-08-28T18:38:00Z,00000200,00000000,0000.40,0000.25,-000.30,0000.22,0000.34,-000.37,0000.12,0000.16,0000.19,20.9,27.0,06.4,04.4,0669.5,31.2
2021-08-28T18:39:00Z,00000200,00000000,0000.47,-000.05,0000.07,0000.27,0000.28,0000.16,-000.12,0000.01,0000.07,20.9,27.0,06.4,04.4,0669.5,31.2
2021-08-28T18:40:00Z,00000200,00000000,0000.08,0000.01,0000.10,-000.21,-000.16,-000.05,0000.24,0000.10,-000.09,20.9,27.0,06.4,04.4,0669.5,31.2
2021-08-28T18:41:00Z,00000200,00000000,0000.50,0000.03,0000.00,0000.37,0000.13,0000.20,-000.06,0000.15,0000.43,20.9,27.0,06.4,04.4,0669.5,31.2
2021-08-28T18:42:00Z,00000200,00000000,0000.64,-000.01,-000.17,-000.06,-000.06,0000.09,0000.16,-000.31,-000.55,20.9,27.0,06.4,04.5,0669.5,31.2
2021-08-28T18:43:00Z,00000200,00000000,0000.28,-000.07,0000.06,0000.23,0000.19,0000.35,-000.26,0000.13,0000.39,20.8,27.0,06.4,04.4,0669.5,31.2
2021-08-28T18:44:00Z,00000200,00000000,0000.24,-000.08,-000.10,0000.28,-000.18,0000.34,0000.27,-000.04,-000.19,20.8,27.0,06.5,04.5,0669.5,31.3
2021-08-28T18:45:00Z,00000200,00000000,-000.10,-000.13,0000.01,0000.11,0000.28,-000.36,0000.09,-000.31,0000.05,20.9,27.0,06.4,04.5,0669.5,31.3
2021-08-28T18:46:00Z,00000200,00000000,0000.61,0000.18,0000.02,0000.26,0000.16,-000.12,-000.29,0000.12,0000.24,20.9,27.0,06.5,04.5,0669.5,31.2
2021-08-28T18:47:00Z,00000200,00000000,-000.13,0000.04,-000.06,0000.01,0000.22,0000.47,-000.22,0000.18,-000.32,20.8,27.0,06.4,04.5,0669.5,31.3
2021-08-28T18:48:00Z,00000200,00000000,0000.30,-000.06,-000.08,0000.03,0000.27,-000.15,0000.38,-000.15,-000.28,20.8,27.0,06.4,04.4,0669.5,31.3
2021-08-28T18:49:00Z,00000200,00000000,-000.01,-000.08,-000.17,0000.84,0000.10,0000.04,-000.10,0000.29,0000.36,20.8,27.0,06.5,04.5,0669.5,31.2
2021-08-28T18:50:00Z,00000200,00000000,0000.00,-000.08,0000.45,0000.76,0000.37,0000.12,0000.54,0000.39,0000.21,20.8,27.0,06.6,04.5,0669.5,31.2
2021-08-28T18:51:00Z,00000200,00000000,-000.20,-000.06,-000.23,0000.29,0000.08,0000.03,0000.12,0000.02,0000.28,20.8,27.0,06.6,04.6,0669.5,31.2
2021-08-28T18:52:00Z,00000200,00000000,0000.98,0000.01,0000.09,0000.71,0000.21,0000.26,-000.24,-000.44,-000.07,20.8,27.0,06.6,04.6,0669.5,31.2
2021-08-28T18:53:00Z,00000200,00000000,-000.17,0000.23,-000.40,0000.10,0000.02,-000.11,0000.17,0000.36,0000.32,20.8,27.0,06.7,04.6,0669.5,31.2
2021-08-28T18:54:00Z,00000200,00000000,0000.54,0000.10,-000.12,0000.08,-000.24,0000.09,-000.06,0000.12,-000.31,20.8,27.0,06.7,04.6,0669.5,31.2
2021-08-28T18:55:00Z,00000200,00000000,0000.40,-000.19,-000.27,0000.10,0000.23,0000.16,-000.03,0000.23,0000.08,20.8,27.0,06.8,04.7,0669.5,31.2
2021-08-28T18:56:00Z,00000200,00000000,0000.12,-000.25,-000.14,-000.13,0000.01,0000.07,0000.09,-000.54,-000.04,20.8,27.0,06.8,04.7,0669.5,31.2
2021-08-28T18:57:00Z,00000200,40000000,,,,,,,0000.27,0000.67,0000.18,20.9,27.0,06.6,04.6,0669.6,31.2
2021-08-28T18:58:00Z,00000200,60000000,,,,,,,-000.27,-000.25,-000.05,20.6,27.1,06.8,04.6,0668.5,31.2
2021-08-28T18:59:00Z,00000200,20000000,,,,,,,0000.26,-000.05,0000.33,20.6,27.2,06.8,04.6,0668.5,31.2
